CW3699 Weather Reports


Display with metric or nautical units.
time (UTC)temp
F
wind
direction
speed
MPH
gust
MPH
rain 1hr
in
rain 24hr
in
rain mn
in
humidity
%
barometer
mb
20260504223906 51 251 1.0 3.0 0.00 0.15 0.01 75 995.0
20260504223406 51 225 1.0 3.0 0.00 0.15 0.01 74 995.3
20260504222906 51 143 2.0 5.0 0.00 0.15 0.01 72 994.9
20260504222407 51 270 2.0 6.0 0.00 0.15 0.01 68 994.9
20260504221907 52 45 2.0 3.0 0.00 0.15 0.01 69 995.1
20260504221406 53 161 2.0 5.0 0.00 0.15 0.01 67 994.4
20260504220407 54 1 3.0 7.0 0.00 0.15 0.01 61 994.0
20260504215908 55 1 2.0 6.0 0.00 0.15 0.01 60 993.8
20260504215407 56 8 2.0 5.0 0.00 0.15 0.01 58 993.7
20260504214907 56 1 1.0 3.0 0.00 0.15 0.01 58 993.5
20260504214406 58 43 2.0 3.0 0.00 0.15 0.01 55 993.4
20260504213406 63 354 2.0 5.0 0.00 0.15 0.01 47 993.2
20260504212906 67 28 2.0 9.0 0.00 0.15 0.01 41 993.2
20260504212406 71 30 1.0 10.0 0.00 0.15 0.01 37 992.6
20260504211407 73 262 7.0 14.0 0.00 0.15 0.01 34 992.4
20260504210407 73 239 6.0 13.0 0.00 0.15 0.01 35 992.4
20260504205906 72 193 6.0 10.0 0.00 0.15 0.01 35 992.4
20260504205406 72 239 6.0 13.0 0.00 0.15 0.01 35 992.4
20260504204909 72 225 7.0 23.0 0.00 0.15 0.01 35 992.5
20260504203906 71 201 7.0 13.0 0.00 0.15 0.01 35 992.5
20260504203409 71 211 5.0 12.0 0.00 0.15 0.01 35 992.5
20260504202907 71 223 7.0 15.0 0.00 0.15 0.01 34 992.5
20260504202406 71 234 5.0 18.0 0.00 0.15 0.01 34 992.5
20260504201909 71 255 7.0 26.0 0.00 0.15 0.01 34 992.5
20260504201407 71 255 5.0 13.0 0.00 0.15 0.01 34 992.5
20260504200409 71 233 5.0 15.0 0.00 0.15 0.01 35 992.5
20260504195906 71 246 6.0 16.0 0.00 0.15 0.01 36 992.7
20260504195407 71 269 4.0 13.0 0.00 0.15 0.01 39 992.9
20260504194906 71 266 3.0 20.0 0.00 0.15 0.01 41 992.7
20260504194407 72 247 6.0 14.0 0.00 0.15 0.01 40 992.8
20260504193906 73 263 7.0 20.0 0.00 0.15 0.01 34 992.6
20260504193409 74 250 6.0 20.0 0.00 0.15 0.01 30 992.7
20260504192906 74 243 5.0 17.0 0.00 0.15 0.01 30 992.8
20260504192406 75 240 6.0 18.0 0.00 0.15 0.01 31 992.9
20260504191909 75 254 11.0 18.0 0.00 0.15 0.01 30 992.7
20260504190906 76 217 9.0 20.0 0.00 0.15 0.01 29 992.7
20260504190408 76 256 9.0 20.0 0.00 0.15 0.01 27 992.7
20260504185906 77 249 9.0 23.0 0.00 0.15 0.01 28 992.8
20260504185407 76 237 9.0 23.0 0.00 0.15 0.01 28 992.7
20260504184907 76 236 9.0 25.0 0.00 0.15 0.01 28 992.7
20260504184406 76 236 6.0 21.0 0.00 0.15 0.01 29 992.7
20260504183906 76 227 8.0 20.0 0.00 0.15 0.01 29 992.6
20260504182907 76 238 9.0 23.0 0.00 0.15 0.01 28 992.5
20260504182406 76 187 10.0 28.0 0.00 0.15 0.01 28 992.3
20260504181906 76 201 6.0 18.0 0.00 0.15 0.01 28 992.4
20260504180906 76 223 7.0 30.0 0.00 0.15 0.01 29 992.3
20260504175907 75 186 11.0 23.0 0.00 0.15 0.01 29 993.0
20260504175406 75 218 12.0 26.0 0.00 0.15 0.01 29 993.0
20260504174906 75 194 9.0 21.0 0.00 0.15 0.01 30 993.1
20260504174406 75 250 9.0 21.0 0.00 0.15 0.01 30 993.4
20260504173906 75 242 7.0 21.0 0.00 0.15 0.01 31 993.4
20260504173406 74 271 6.0 20.0 0.00 0.15 0.01 31 993.5
20260504172406 74 222 10.0 20.0 0.00 0.15 0.01 31 993.7
20260504171406 73 213 7.0 17.0 0.00 0.15 0.01 32 993.9
20260504170905 73 189 5.0 17.0 0.00 0.15 0.01 34 994.0
20260504170408 72 249 7.0 16.0 0.00 0.16 0.01 33 994.0
20260504160406 69 208 7.0 16.0 0.00 0.16 0.01 39 995.1
20260504150906 64 216 6.0 13.0 0.00 0.18 0.01 54 996.2
20260504140905 56 185 6.0 9.0 0.00 0.19 0.01 73 997.1
20260504140405 55 192 5.0 10.0 0.00 0.19 0.01 75 997.2
20260504130406 48 158 3.0 7.0 0.00 0.22 0.01 92 998.3
20260504110407 40 172 3.0 6.0 0.01 0.22 0.01 97 999.2
20260504100406 39 176 3.0 5.0 0.00 0.21 0.00 97 999.8
20260504081908 35 119 1.0 2.0 0.00 0.21 0.00 96 1001.3
20260504081407 35 89 1.0 2.0 0.00 0.21 0.00 96 1001.4
20260504080907 35 136 1.0 2.0 0.00 0.21 0.00 96 1001.4
20260504080406 35 113 0.0 2.0 0.00 0.21 0.00 96 1001.5
20260504070406 36 173 1.0 2.0 0.00 0.21 0.00 96 1002.1
20260504050405 38 156 1.0 2.0 0.00 0.21 0.00 96 1002.7
20260504045907 38 167 2.0 3.0 0.00 0.21 0.00 96 1002.7
20260504044907 38 176 1.0 3.0 0.00 0.21 0.00 96 1002.6
20260504044406 38 161 2.0 3.0 0.00 0.21 0.00 95 1002.7
20260504043905 38 164 2.0 3.0 0.00 0.21 0.00 95 1002.8
20260504043408 38 160 2.0 2.0 0.00 0.21 0.00 95 1002.8
20260504042905 38 164 1.0 3.0 0.00 0.21 0.00 95 1002.9
20260504042405 38 166 1.0 2.0 0.00 0.21 0.00 95 1002.9
20260504041907 38 168 1.0 2.0 0.00 0.21 0.00 95 1003.0
20260504041406 38 161 0.0 2.0 0.00 0.21 0.00 95 1003.1
20260504040906 39 145 0.0 2.0 0.00 0.21 0.00 95 1003.2
20260504040406 39 153 1.0 3.0 0.00 0.21 0.00 95 1003.2
20260504035908 39 176 2.0 3.0 0.00 0.21 0.21 95 1003.3
20260504034909 39 164 1.0 2.0 0.00 0.21 0.21 95 1003.3
20260504034406 40 155 2.0 2.0 0.00 0.21 0.21 95 1003.4
20260504033905 40 216 2.0 2.0 0.00 0.21 0.21 95 1003.4
20260504032907 40 224 1.0 3.0 0.00 0.21 0.21 95 1003.6
20260504032407 40 228 1.0 2.0 0.00 0.21 0.21 95 1003.7
20260504031906 41 249 1.0 2.0 0.00 0.21 0.21 95 1003.8
20260504031405 41 329 1.0 2.0 0.00 0.21 0.21 95 1003.8
20260504030906 41 333 1.0 2.0 0.00 0.21 0.21 96 1003.8
20260504025905 41 326 2.0 3.0 0.00 0.21 0.21 96 1003.9
20260504025405 41 263 1.0 2.0 0.00 0.21 0.21 96 1003.8
20260504024907 41 160 0.0 2.0 0.00 0.21 0.21 95 1003.8
20260504024405 41 187 1.0 2.0 0.00 0.21 0.21 95 1003.9
20260504023907 42 157 1.0 2.0 0.00 0.21 0.21 95 1003.9
20260504023407 42 219 1.0 2.0 0.00 0.21 0.21 95 1003.9
20260504022905 42 218 1.0 2.0 0.00 0.21 0.21 95 1003.8
20260504022406 42 176 1.0 2.0 0.00 0.21 0.21 96 1003.7
20260504021906 42 162 1.0 2.0 0.00 0.21 0.21 96 1003.7
20260504021405 43 157 1.0 2.0 0.00 0.21 0.21 96 1003.8
20260504020907 43 213 0.0 1.0 0.00 0.21 0.21 96 1003.7
20260504020405 43 61 1.0 2.0 0.00 0.21 0.21 96 1003.7
20260504015905 43 162 1.0 2.0 0.00 0.21 0.21 96 1003.7
20260504015405 43 27 1.0 2.0 0.00 0.21 0.21 96 1003.6
20260504014907 43 28 1.0 2.0 0.00 0.21 0.21 96 1003.6
20260504014406 43 102 0.0 2.0 0.00 0.21 0.21 95 1003.5
20260504013905 43 86 1.0 2.0 0.00 0.21 0.21 96 1003.5
20260504013405 43 147 1.0 3.0 0.00 0.21 0.21 96 1003.5
20260504012906 43 138 1.0 3.0 0.00 0.21 0.21 96 1003.4
20260504012405 43 85 2.0 6.0 0.00 0.21 0.21 95 1003.6
20260504011906 43 87 2.0 6.0 0.00 0.21 0.21 95 1003.6
20260504011406 43 73 0.0 1.0 0.00 0.21 0.21 96 1003.6
20260504010905 43 79 0.0 1.0 0.00 0.21 0.21 95 1003.5
20260504010405 43 50 0.0 1.0 0.00 0.21 0.21 95 1003.5
20260504005906 43 90 0.0 2.0 0.00 0.21 0.21 96 1003.4
20260504004906 43 100 1.0 2.0 0.00 0.21 0.21 96 1003.4
20260504004405 43 123 1.0 2.0 0.00 0.21 0.21 96 1003.1
20260504003907 43 175 2.0 3.0 0.00 0.21 0.21 95 1003.1
20260504003406 43 154 3.0 3.0 0.01 0.21 0.21 95 1003.3
20260504002906 43 167 2.0 3.0 0.01 0.21 0.21 95 1003.4
20260504001907 42 158 3.0 3.0 0.03 0.21 0.21 95 1003.4
20260504000906 42 161 1.0 3.0 0.07 0.21 0.21 95 1003.7
20260504000405 42 170 2.0 3.0 0.09 0.21 0.21 95 1003.7
20260503235406 41 170 1.0 3.0 0.13 0.21 0.21 95 1003.9
20260503234905 41 155 1.0 3.0 0.13 0.21 0.21 95 1003.9
20260503234407 41 141 2.0 3.0 0.14 0.21 0.21 94 1003.9
20260503233906 40 107 1.0 3.0 0.14 0.21 0.21 94 1004.0
20260503233406 40 149 2.0 3.0 0.13 0.20 0.20 93 1004.1
20260503231906 40 24 2.0 3.0 0.11 0.18 0.18 92 1004.5
20260503230904 41 82 2.0 3.0 0.07 0.14 0.14 92 1004.7
20260503230405 41 19 2.0 3.0 0.05 0.12 0.12 92 1005.0
20260503225905 41 251 0.0 3.0 0.03 0.10 0.10 92 1004.5
20260503224906 41 27 4.0 9.0 0.01 0.08 0.08 90 1003.9
20260503224406 42 34 3.0 6.0 0.00 0.07 0.07 88 1003.4